Weather History for EGLL - October, 2013

Change the Weather History Date:

Wednesday, October 2, 2013

  Actual Average Record
Temperature  
Mean Temperature 64 °F -  
Max Temperature 71 °F 57 °F 80 °F (2011)
Min Temperature 57 °F 46 °F 42 °F (1996)
Degree Days  
Heating Degree Days 1    
Growing Degree Days 14 (Base 50)    
Moisture  
Dew Point 57 °F    
Average Humidity 83    
Maximum Humidity 94    
Minimum Humidity 62    
Precipitation  
Precipitation 0.00 in - - ()
Sea Level Pressure  
Sea Level Pressure 29.84 in    
Wind  
Wind Speed 9 mph ()    
Max Wind Speed 12 mph    
Max Gust Speed -    
Visibility 6.3 miles    
Events Rain    
Averages and records for this station are not official NWS values.
T = Trace of Precipitation, MM = Missing Value Source: Averaged Metar Reports

Daily Weather History Graph

Daily Weather History Graph

Search for Another Location

Airport or City:

Trip Planner

Search our weather history database for the weather conditions in past years. The results will help you decide how hot, cold, wet, or windy it might be!

Date:

Astronomy

Oct. 02, 2013 Rise Set
Actual Time 7:04 AM BST 6:37 PM BST
Civil Twilight 6:30 AM BST 7:10 PM BST
Nautical Twilight 5:52 AM BST 7:48 PM BST
Astronomical Twilight 5:12 AM BST 8:28 PM BST
Moon 4:07 AM BST (10/2) 5:16 PM BST (10/2)
Length of Visible Light 12h 39m
Length of Day
11h 32m
Waning Crescent, 7% of the Moon is Illuminated
Oct 2
Waning Crescent
Oct 5
New
Oct 12
First Quarter
Oct 19
Full
Oct 27
Last Quarter

Hourly Weather History & Observations

Time (BST) Temp. Dew Point Humidity Pressure Visibility Wind Dir Wind Speed Gust Speed Precip Events Conditions
12:20 AM 60.8 °F 51.8 °F 72% 29.80 in 6.2 mi ESE 11.5 mph - N/A   Mostly Cloudy
12:50 AM 60 °F 51 °F 63% 29.81 in 14 mi ESE 11.5 mph - -   Scattered Clouds
12:50 AM 60.8 °F 51.8 °F 72% 29.80 in 6.2 mi ESE 10.4 mph - N/A   Mostly Cloudy
1:20 AM 60.8 °F 51.8 °F 72% 29.80 in 6.2 mi East 10.4 mph - N/A   Mostly Cloudy
1:50 AM 60.8 °F 51.8 °F 72% 29.80 in 6.2 mi ESE 11.5 mph - N/A   Mostly Cloudy
2:20 AM 59.0 °F 53.6 °F 82% 29.80 in 6.2 mi ESE 10.4 mph - N/A   Mostly Cloudy
2:50 AM 59.0 °F 53.6 °F 82% 29.80 in 6.2 mi East 9.2 mph - N/A   Mostly Cloudy
3:20 AM 59.0 °F 53.6 °F 82% 29.80 in 6.2 mi ESE 11.5 mph - N/A   Mostly Cloudy
3:50 AM 58 °F 53 °F 77% 29.80 in 9 mi ESE 11.5 mph - - Rain Rain
3:50 AM 59.0 °F 53.6 °F 82% 29.80 in 6.2 mi ESE 10.4 mph - N/A   Mostly Cloudy
4:20 AM 57.2 °F 53.6 °F 88% 29.80 in 6.2 mi ESE 10.4 mph - N/A   Mostly Cloudy
4:50 AM 57.2 °F 55.4 °F 94% 29.80 in 6.2 mi ESE 8.1 mph - N/A   Mostly Cloudy
5:20 AM 57.2 °F 55.4 °F 94% 29.80 in 6.2 mi ESE 6.9 mph - N/A   Mostly Cloudy
5:50 AM 57.2 °F 55.4 °F 94% 29.80 in 6.2 mi ESE 8.1 mph - N/A   Mostly Cloudy
6:20 AM 57.2 °F 55.4 °F 94% 29.80 in 6.2 mi ESE 8.1 mph - N/A   Mostly Cloudy
6:50 AM 58 °F 54 °F 83% 29.80 in 7 mi ESE 9.2 mph - -  
6:50 AM 57.2 °F 55.4 °F 94% 29.80 in 6.2 mi ESE 9.2 mph - N/A   Mostly Cloudy
7:20 AM 57.2 °F 55.4 °F 94% 29.80 in 5.0 mi ESE 8.1 mph - N/A   Overcast
7:50 AM 59.0 °F 55.4 °F 88% 29.80 in 4.3 mi East 8.1 mph - N/A   Overcast
8:20 AM 59.0 °F 55.4 °F 88% 29.80 in 4.3 mi East 8.1 mph - N/A   Overcast
8:50 AM 59.0 °F 57.2 °F 94% 29.83 in 4.3 mi ESE 10.4 mph - N/A   Overcast
9:20 AM 59.0 °F 57.2 °F 94% 29.83 in 3.7 mi ESE 10.4 mph - N/A   Overcast
9:50 AM 59 °F 56 °F 88% 29.85 in 4 mi ESE 10.4 mph - - Rain Light Drizzle
9:50 AM 59.0 °F 57.2 °F 94% 29.83 in 3.7 mi ESE 10.4 mph - N/A   Overcast
10:20 AM 60.8 °F 57.2 °F 88% 29.86 in 3.7 mi ESE 10.4 mph - N/A   Overcast
10:50 AM 60.8 °F 57.2 °F 88% 29.86 in 3.7 mi ESE 10.4 mph - N/A   Overcast
11:20 AM 60.8 °F 57.2 °F 88% 29.86 in 3.7 mi ESE 9.2 mph - N/A   Overcast
11:50 AM 62.6 °F 59.0 °F 88% 29.86 in 4.3 mi ESE 8.1 mph - N/A   Mostly Cloudy
12:20 PM 66.2 °F 60.8 °F 83% 29.86 in 5.0 mi SE 8.1 mph - N/A   Mostly Cloudy
12:50 PM 67 °F 60 °F 72% 29.85 in 9 mi SE 8.1 mph - -   Partly Cloudy
12:50 PM 66.2 °F 60.8 °F 83% 29.86 in 6.2 mi SSE 8.1 mph - N/A   Scattered Clouds
1:20 PM 66.2 °F 60.8 °F 83% 29.86 in 6.2 mi SSE 8.1 mph - N/A   Scattered Clouds
1:50 PM 69.8 °F 60.8 °F 73% 29.83 in 6.2 mi SSE 9.2 mph - N/A   Scattered Clouds
2:20 PM 69.8 °F 59.0 °F 68% 29.83 in 6.2 mi SSE 10.4 mph - N/A   Scattered Clouds
2:50 PM 69.8 °F 59.0 °F 68% 29.83 in 6.2 mi SSE 9.2 mph - N/A   Scattered Clouds
3:20 PM 69.8 °F 60.8 °F 73% 29.86 in 6.2 mi SSE 10.4 mph - N/A   Scattered Clouds
3:50 PM 70 °F 60 °F 62% 29.84 in 19 mi SE 11.5 mph - -   Scattered Clouds
3:50 PM 68.0 °F 60.8 °F 78% 29.83 in 6.2 mi SSE 10.4 mph - N/A   Scattered Clouds
4:20 PM 69.8 °F 59.0 °F 68% 29.83 in 6.2 mi SSE 10.4 mph - N/A   Scattered Clouds
4:50 PM 68.0 °F 59.0 °F 73% 29.83 in 6.2 mi South 11.5 mph - N/A   Scattered Clouds
5:20 PM 66.2 °F 59.0 °F 78% 29.86 in 6.2 mi SSE 9.2 mph - N/A   Partly Cloudy
5:50 PM 66.2 °F 59.0 °F 78% 29.86 in 6.2 mi South 9.2 mph - N/A   Partly Cloudy
6:20 PM 66.2 °F 59.0 °F 78% 29.86 in 6.2 mi SSE 9.2 mph - N/A   Partly Cloudy
6:50 PM 64 °F 58 °F 74% 29.87 in 17 mi SE 9.2 mph - -  
6:50 PM 64.4 °F 59.0 °F 83% 29.86 in 6.2 mi SE 8.1 mph - N/A   Partly Cloudy
7:20 PM 64.4 °F 59.0 °F 83% 29.89 in 6.2 mi SE 8.1 mph - N/A   Partly Cloudy
7:50 PM 64.4 °F 59.0 °F 83% 29.89 in 6.2 mi SE 8.1 mph - N/A   Partly Cloudy
8:20 PM 62.6 °F 59.0 °F 88% 29.89 in - SE 6.9 mph - N/A   Clear
8:50 PM 62.6 °F 59.0 °F 88% 29.89 in - ESE 6.9 mph - N/A   Clear
9:20 PM 62.6 °F 59.0 °F 88% 29.89 in 6.2 mi SE 6.9 mph - N/A   Mostly Cloudy
9:50 PM 60 °F 58 °F 89% 29.90 in 7 mi SE 6.9 mph - -   Partly Cloudy
9:50 PM 60.8 °F 59.0 °F 94% 29.89 in 6.2 mi SE 5.8 mph - N/A   Partly Cloudy
10:20 PM 60.8 °F 59.0 °F 94% 29.89 in 5.0 mi ESE 4.6 mph - N/A   Partly Cloudy
10:50 PM 60.8 °F 59.0 °F 94% 29.89 in 4.3 mi East 6.9 mph - N/A   Unknown
11:20 PM 60.8 °F 59.0 °F 94% 29.89 in 4.3 mi East 5.8 mph - N/A   Unknown
11:50 PM 59.0 °F 57.2 °F 94% 29.89 in 3.7 mi East 5.8 mph - N/A   Unknown